• Join FlightAware (Why Join?)
  • Login
  • US Flag 
03:46PM EDT


 

Airport Tracker/Info


-or-


 

Live Flight TrackerFlight Track Log ✈ UAL3779 ✈ 11-Apr-2013 ✈ KOKC - KORD

Flight Track Log - Related Links

Times and Time Zones

All times are in EDT time to prevent confusion due to time zone crossing. See the UAL3779 flight status page for this flight to view local times or setup timezone preferences in your user account.

Time Position Orientation Groundspeed Altitude Reporting Facility
EDT Latitude Longitude Course Direction KTS MPH feet Rate Location/Type
07:19AM 35.4039 -97.5919 63° Northeast 158 182 2,000  Level Fort Worth Center
07:21AM 35.4519 -97.5692 21° North 191 220 4,500 1,980 Climbing Fort Worth Center
07:22AM 35.4856 -97.4953 61° Northeast 284 327 6,200 2,220 Climbing Fort Worth Center
07:23AM 35.5536 -97.3403 62° Northeast 300 345 10,400 2,220 Climbing Kansas City Center
07:24AM 35.5958 -97.2386 63° Northeast 323 372 12,200 1,920 Climbing Kansas City Center
07:25AM 35.7343 -96.8144 63° Northeast  Level FlightAware Approximate
07:25AM 35.6442 -97.1256 62° Northeast 364 419 14,400  Level Kansas City Center
07:26AM 35.6944 -97.0078 62° Northeast 381 438 16,300 1,920 Climbing Kansas City Center
07:27AM 35.7450 -96.8858 63° Northeast 396 456 18,300 1,800 Climbing Kansas City Center
07:28AM 35.7983 -96.7581 63° Northeast 413 475 20,000 1,620 Climbing Kansas City Center
07:29AM 35.8539 -96.6250 63° Northeast 431 496 21,600 1,260 Climbing Kansas City Center
07:30AM 35.9119 -96.4858 63° Northeast 450 518 22,700 1,320 Climbing Kansas City Center
07:31AM 35.9767 -96.3306 63° Northeast 470 541 24,400 1,560 Climbing Kansas City Center
07:32AM 36.0367 -96.1847 63° Northeast 474 545 25,800 1,440 Climbing Kansas City Center
07:33AM 36.0975 -96.0367 63° Northeast 480 552 27,400 1,260 Climbing Kansas City Center
07:34AM 36.1575 -95.8869 64° Northeast 484 557 28,500 960 Climbing Kansas City Center
07:35AM 36.2147 -95.7483 63° Northeast 491 565 29,400 840 Climbing Kansas City Center
07:36AM 36.2892 -95.5981 58° Northeast 507 583 30,300 780 Climbing Kansas City Center
07:37AM 36.3642 -95.4431 59° Northeast 518 596 31,100 780 Climbing Kansas City Center
07:38AM 36.4539 -95.2539 59° Northeast 527 606 32,000 900 Climbing Kansas City Center
07:39AM 36.5311 -95.0933 59° Northeast 534 615 33,000 1,020 Climbing Kansas City Center
07:40AM 36.6053 -94.9344 60° Northeast 533 613 34,100 960 Climbing Kansas City Center
07:41AM 36.6808 -94.7761 59° Northeast 532 612 35,000 420 Climbing Kansas City Center
07:42AM 36.7556 -94.6169 60° Northeast 530 610 35,000  Level Kansas City Center
07:43AM 36.8344 -94.4561 58° Northeast 538 619 35,000  Level Kansas City Center
07:44AM 36.9489 -94.3264 42° Northeast 550 633 35,000  Level Kansas City Center
07:45AM 37.0722 -94.2106 37° Northeast 552 635 35,000  Level Kansas City Center
07:47AM 37.1894 -94.0981 37° Northeast 557 641 35,000  Level Kansas City Center
07:48AM 37.3133 -93.9772 38° Northeast 560 644 35,000  Level Kansas City Center
07:49AM 37.4369 -93.8544 38° Northeast 562 647 35,000  Level Kansas City Center
07:50AM 37.5597 -93.7317 38° Northeast 561 646 35,000  Level Kansas City Center
07:51AM 37.6803 -93.6094 39° Northeast 556 640 35,000  Level Kansas City Center
07:52AM 37.8272 -93.4611 39° Northeast 557 641 35,000 240 Level Kansas City Center
07:53AM 37.9508 -93.3358 39° Northeast 562 647 35,600 840 Climbing Kansas City Center
07:54AM 38.0725 -93.2125 39° Northeast 559 643 36,800 660 Climbing Kansas City Center
07:55AM 38.1917 -93.0906 39° Northeast 549 632 37,000 60 Climbing Kansas City Center
07:56AM 38.3167 -92.9639 38° Northeast 558 642 37,000  Level Kansas City Center
07:57AM 38.4419 -92.8336 39° Northeast 569 655 37,000  Level Kansas City Center
07:58AM 38.5675 -92.7019 39° Northeast 574 661 37,000  Level Kansas City Center
07:59AM 38.6953 -92.5678 39° Northeast 579 666 37,000  Level Kansas City Center
08:00AM 38.8250 -92.4342 39° Northeast 589 678 37,000  Level Kansas City Center
08:01AM 38.9511 -92.3019 39° Northeast 586 674 37,000  Level Kansas City Center
08:02AM 39.0769 -92.1711 39° Northeast 581 669 37,000  Level Kansas City Center
08:03AM 39.1811 -92.0122 50° Northeast 581 669 37,000  Level Kansas City Center
08:04AM 39.2672 -91.8647 53° Northeast 573 659 37,000  Level Kansas City Center
08:05AM 39.3606 -91.7006 54° Northeast 574 661 37,000  Level Kansas City Center
08:06AM 39.4647 -91.5242 53° Northeast 572 658 37,000  Level Kansas City Center
08:07AM 39.6006 -91.3736 40° Northeast 584 672 37,000  Level Kansas City Center
08:08AM 39.7133 -91.2486 40° Northeast 586 674 37,000  Level Kansas City Center
08:09AM 39.8458 -91.1000 41° Northeast 587 676 37,000  Level Kansas City Center
08:10AM 39.9658 -90.9686 40° Northeast 590 679 37,000  Level Kansas City Center
08:11AM 40.0894 -90.8283 41° Northeast 589 678 37,000 -1,260 Level Kansas City Center
08:12AM 40.2131 -90.6892 41° Northeast 587 676 34,600 -2,040 Descending Chicago Center
08:13AM 40.3350 -90.5511 41° Northeast 581 669 33,000 -840 Descending Chicago Center
08:14AM 40.4536 -90.4156 41° Northeast 570 656 32,900 -840 Descending Chicago Center
08:15AM 40.5825 -90.2664 41° Northeast 512 589 31,400 -1,440 Descending Chicago Center
08:16AM 40.6811 -90.1525 41° Northeast 506 582 30,000 -1,440 Descending Chicago Center
08:17AM 40.7858 -90.0311 41° Northeast 503 579 28,500 -1,500 Descending Chicago Center
08:18AM 40.8936 -89.9014 42° Northeast 522 601 27,000 -1,620 Descending Chicago Center
08:19AM 41.0153 -89.7583 42° Northeast 513 590 25,300 -1,620 Descending Chicago Center
08:20AM 41.1169 -89.6375 42° Northeast 495 570 23,800 -1,080 Descending Chicago Center
08:21AM 41.1958 -89.4983 53° Northeast 477 549 23,200 -1,620 Descending Chicago Center
08:22AM 41.2572 -89.3481 61° Northeast 465 535 20,600 -2,400 Descending Chicago Center
08:23AM 41.3153 -89.2025 62° Northeast 449 517 18,400 -2,520 Descending Chicago Center
08:24AM 41.3689 -89.0706 62° Northeast 405 466 15,500 -2,400 Descending Chicago Center
08:25AM 41.4153 -88.9544 62° Northeast 364 419 13,500 -1,980 Descending Chicago Center
08:26AM 41.4572 -88.8456 63° Northeast 338 389 11,500 -1,260 Descending Chicago Center
08:27AM 41.5072 -88.7225 61° Northeast 321 369 11,000 -300 Descending Chicago Center
08:28AM 41.5467 -88.6206 63° Northeast 311 358 11,000 -240 Level Chicago Center
08:29AM 41.5875 -88.5183 62° Northeast 311 358 10,600 -840 Descending Chicago Center
08:30AM 41.6353 -88.4217 57° Northeast 312 359 9,300 -1,260 Descending Chicago Center
08:31AM 41.6919 -88.3361 48° Northeast 313 360 8,100 -1,140 Descending Chicago Center
08:32AM 41.7786 -88.3311 North 316 364 7,000 -540 Descending Chicago Center
08:33AM 41.8533 -88.3383 356° North 274 315 7,000 -660 Level Chicago Center
08:34AM 41.9078 -88.3592 344° North 216 249 5,700 -1,020 Descending Chicago Center
08:35AM 41.9700 -88.3372 15° North 224 258 5,000 -360 Descending Chicago Center
08:37AM 41.9703 -88.2711 90° East 188 216 5,000 -60 Level Chicago Center
08:38AM 41.9656 -88.2047 95° East 179 206 4,900 -660 Descending Chicago Center
08:39AM 41.9681 -88.1350 87° East 183 211 3,700 -1,140 Descending Chicago Center
08:39AM 41.9667 -88.0833 92° East 169 194 3,000 -900 Descending Chicago TRACON
08:40AM 41.9667 -88.0333 90° East 130 150 2,200 -720 Descending Chicago TRACON
08:41AM 41.9667 -87.9833 90° East 110 127 1,600 -660 Descending Chicago TRACON
08:42AM 41.9667 -87.9500 90° East 118 136 1,000 -600 Descending Chicago TRACON